Location: Aboncourt
(47.7710°N, 5.9826°E)
Time: 17:06:45
(UTC+00:00)

Daily predictions for brighter satellites

Satellite Brightness Start Highest point End
(mag) Time Altitude Azimuth Time Altitude Azimuth Time Altitude Azimuth
Cosmos 1825 Rocket 4.3 20:12:08 10° SSE 20:16:13 37° E 20:20:20 10° NNE
ATLAS CENTAUR R/B 2.8 20:15:01 10° NNW 20:18:05 23° NE 20:21:06 10° E
Cosmos 1703 3.7 20:17:06 10° SSE 20:20:45 41° E 20:24:27 10° NNE
COSMOS 2428 3.9 20:17:27 10° SSE 20:21:40 22° E 20:25:55 10° NE
Cosmos 1812 Rocket 3.7 20:17:47 10° NNW 20:22:08 77° W 20:26:27 10° S
Cosmos 1844 4.0 20:17:52 10° NNW 20:23:39 64° ENE 20:29:19 10° SE
Cosmos 2322 4.3 20:20:07 10° S 20:25:21 38° ESE 20:30:36 10° NE
Cosmos 1602 Rocket 4.0 20:25:10 10° SSW 20:29:33 67° WNW 20:34:00 10° N
Cosmos 2263 Rocket 4.2 20:27:21 10° NW 20:31:39 23° WSW 20:35:54 10° SSW
Cosmos 1709 Rocket 4.3 20:26:17 10° SSE 20:32:20 52° E 20:38:29 10° NNE
Nadezhda 1 Rocket 4.2 20:26:18 10° N 20:32:45 82° W 20:39:08 10° S
MetOp-B 4.3 20:29:07 10° SSE 20:34:28 81° WSW 20:39:52 10° NNW
Atlas Centaur 2 4.0 20:31:13 10° SSW 20:34:50 16° S 20:38:47 10° SE
Cosmos 2237 Rocket 4.1 20:34:20 10° ESE 20:35:44 11° E 20:37:09 10° E
Terra 3.0 20:31:51 10° SE 20:35:58 30° ENE 20:40:08 10° N
CARTOSAT-1 4.2 20:32:57 10° SE 20:37:01 42° ENE 20:41:06 10° N
Cosmos 2219 Rocket 2.9 20:32:42 10° SSE 20:37:34 32° ESE 20:42:29 10° NE
Cosmos 2360 Rocket 2.2 20:33:40 10° SSW 20:39:18 85° ESE 20:45:01 10° NNE
IGS 5A 3.5 20:36:00 10° SSE 20:40:08 86° ENE 20:44:20 10° NNW
Cosmos 2333 Rocket 2.7 20:42:01 10° S 20:47:17 41° ESE 20:52:37 10° NE
ATLAS 2AS CENTAUR R/B 4.1 20:43:29 10° NW 20:50:37 37° NNE 20:57:13 10° E
Cosmos 1315 Rocket 3.7 20:47:17 10° N 20:51:07 37° ENE 20:54:13 14° SE
Resurs 01 Rocket 3.2 20:48:08 10° SSW 20:52:05 32° W 20:56:04 10° NNW
Cosmos 1818 3.7 20:49:08 10° SW 20:54:34 84° NW 21:00:04 10° NE
Cosmos-2242 3.1 20:50:20 10° NNW 20:54:41 78° W 20:59:02 10° S
Cosmos 773 Rocket 4.1 20:52:07 10° S 20:57:20 63° ESE 21:02:35 10° NNE
SL-16 R/B 3.9 20:53:16 10° WSW 20:58:29 37° NW 21:03:44 10° NNE
Cosmos 2221 3.8 20:55:43 10° N 20:59:33 28° ENE 21:02:29 14° SE
ERS-1 Rocket 3.0 20:56:51 13° SSE 21:01:26 79° ENE 21:06:29 10° NNW
GEOS 3 Rocket 3.7 20:58:18 10° NE 21:03:43 83° SE 21:09:07 10° SW
USA 215 3.3 21:00:43 10° ENE 21:07:09 55° SE 21:13:32 10° SW
Cosmos 2278 Rocket 3.0 21:03:08 10° NNW 21:08:31 41° NE 21:13:09 14° ESE
ATLAS 5 CENTAUR R/B 1.9 21:07:07 10° SW 21:11:16 69° NW 21:16:00 10° NE
USA 245 4.4 21:08:46 10° SSW 21:11:51 36° W 21:15:40 10° NNW
Meteor 1-11 4.2 21:06:22 10° S 21:11:59 79° E 21:17:42 10° NNE
Cosmos 1844 Rocket 3.4 21:08:00 10° NW 21:13:21 47° WSW 21:18:16 12° S
Cosmos 1400 Rocket 3.7 21:10:10 10° NNW 21:14:00 44° W 21:17:41 10° SSW
Gblst 52 Del rocket 4.3 21:08:37 10° WNW 21:14:18 86° NNE 21:20:34 10° ESE
SPOT 5 2.9 21:13:56 15° SSE 21:18:09 86° WSW 21:22:59 10° NNW
Lacrosse 5 rocket 3.9 21:16:39 10° WNW 21:20:02 23° N 21:23:16 10° NE
USA 81 4.0 21:19:52 11° S 21:24:55 89° E 21:30:14 10° N
Cosmos 2058 4.0 21:25:00 20° SE 21:26:50 28° E 21:30:24 10° NNE
BREEZE M DEB (TANK) 2.6 21:25:17 10° W 21:27:24 28° SSW 21:27:39 27° SSW
Cosmos 2181 Rocket 4.1 21:22:32 10° N 21:28:55 79° W 21:34:15 15° S
Cosmos 1408 4.4 21:29:06 16° ESE 21:29:56 17° E 21:32:18 10° NE
Cosmos 2074 Rocket 4.1 21:29:16 17° SSE 21:34:05 61° E 21:40:13 10° NNE
TSX-5 4.2 21:31:55 10° NNW 21:35:17 48° ENE 21:37:36 22° ESE
Cosmos 1076 Rocket 4.4 21:36:08 23° SE 21:38:00 33° E 21:41:52 10° NNE
Cosmos 1953 Rocket 4.4 21:34:03 10° SSW 21:38:13 47° WNW 21:42:25 10° N
Cosmos 1680 Rocket 4.4 21:35:42 21° SSE 21:38:17 33° E 21:43:00 10° NE
USA 267 3.4 21:34:05 12° ESE 21:40:10 80° NNE 21:46:45 10° NW
Cosmos 2084 3.6 21:41:19 10° NW 21:45:45 65° SW 21:48:05 27° SSE
Cosmos 1842 Rocket 3.5 21:42:08 10° N 21:46:30 84° W 21:49:02 24° S
JB-3 4.2 21:44:13 10° NNE 21:48:03 64° E 21:49:57 27° S
MTI 3.5 21:48:56 10° NNE 21:52:01 79° ESE 21:53:10 35° S
Cosmos 923 Rocket 4.1 21:52:20 22° S 21:55:41 58° ESE 22:00:53 10° NNE
ATLAS CENTAUR R/B 1.7 21:53:38 10° NW 21:57:09 43° WSW 21:58:26 30° S
Cosmos 1825 3.5 21:58:09 23° ESE 21:58:57 25° E 22:02:07 10° NNE
ALOS 2 4.2 21:58:03 16° ESE 22:00:25 25° ENE 22:03:59 10° N
Cosmos 1980 3.8 21:56:55 22° S 22:00:28 54° ESE 22:05:59 10° NE
Cosmos 967 Rocket 4.5 21:56:13 10° SSW 22:02:38 72° ESE 22:09:05 10° NE
COSMOS 2428 3.1 21:59:47 10° SW 22:05:25 66° WNW 22:11:06 10° NNE
Cosmos 1869 3.7 22:03:31 10° NNW 22:07:26 58° W 22:09:22 28° SSW
NOSS 0 Rocket 3.9 22:07:31 14° SSW 22:12:48 78° ESE 22:19:00 10° NNE
Terra 2.9 22:10:33 17° SSW 22:13:38 36° W 22:18:03 10° NNW
Cosmos 1624 Rocket 4.4 22:08:57 10° NNW 22:14:07 55° ENE 22:16:57 25° SE
NOSS 3-4 (A) 3.9 22:07:25 10° NW 22:14:22 81° NE 22:19:46 21° SE
NOSS 3-4 (C) 3.9 22:07:31 10° NW 22:14:29 81° NE 22:19:55 21° SE
Cosmos 1610 Rocket 4.5 22:11:20 23° S 22:15:28 80° E 22:21:52 10° N
Cosmos 2237 Rocket 2.2 22:14:58 22° SSW 22:18:43 70° ESE 22:24:24 10° NNE
Genesis I 3.5 22:18:35 40° SSE 22:19:20 46° ESE 22:23:06 10° NE
Cosmos 2344 3.7 22:16:02 19° S 22:21:18 53° ESE 22:28:57 10° NE
Cosmos 2219 Rocket 3.2 22:15:58 10° SW 22:21:21 46° NW 22:26:46 10° NNE
Elektron 1 4.2 22:21:21 32° SSW 22:22:46 71° SE 22:27:59 10° NE
Atlas Centaur 2 4.3 22:19:18 10° SW 22:21:21 14° SSW 22:21:21 14° SSW
NOSS 3-3 (A) 4.5 22:18:17 10° SW 22:24:10 62° NW 22:30:53 10° NE
NOSS 3-3 (C) 4.5 22:18:22 10° SW 22:24:16 63° NW 22:31:01 10° NE
DELTA 2 R/B (1) 4.2 22:24:17 10° SW 22:29:13 32° S 22:30:02 31° SSE
Thor Agena Rocket 3.4 22:25:37 10° NNE 22:30:46 77° ESE 22:33:18 30° S
Cosmos 2333 Rocket 3.6 22:26:18 10° WSW 22:31:35 38° NW 22:36:57 10° NNE
Cosmos 2221 4.0 22:33:15 10° NNW 22:37:05 30° W 22:39:20 19° SW
BREEZE-M DEB (TANK) 1.3 22:37:10 10° WNW 22:41:03 88° NNE 22:41:22 66° ESE
Iridium 2 3.8 22:37:31 10° N 22:41:20 68° W 22:42:26 43° SSW
Cosmos 1371 Rocket 4.0 22:36:38 10° NNW 22:41:55 82° WSW 22:44:15 34° SSE
ATLAS 2AS CENTAUR R/B 2.8 22:34:44 10° NW 22:42:20 79° SW 22:46:25 28° SSE
EO 1 Del DPAF 3.1 22:40:04 10° NNE 22:43:51 83° WNW 22:44:59 43° SSW
Cosmos 1892 3.8 22:42:00 23° SW 22:43:51 38° WNW 22:47:27 10° N
Cosmos 1766 Rocket 3.9 22:44:24 38° SE 22:45:37 49° E 22:49:53 10° NNE
MOS 1-B Rocket 4.4 22:37:52 10° NNE 22:45:43 86° ESE 22:49:56 25° SSW
Okean 3 Rocket 3.7 22:47:02 40° SSE 22:48:25 62° E 22:52:48 10° NNE
Aureole 2 Rocket 2.1 22:46:10 10° NNW 22:48:59 59° ENE 22:49:00 59° ENE
Cosmos 1328 Rocket 4.1 22:44:49 10° N 22:49:00 48° ENE 22:50:25 34° SE
USA 215 3.8 22:43:47 10° NE 22:50:14 62° NNW 22:56:40 10° WSW
Cosmos 1606 2.9 22:47:31 10° N 22:51:23 62° ENE 22:52:19 46° SE
Cosmos 2112 Rocket 4.2 22:48:24 24° SSW 22:51:44 75° WNW 22:57:07 10° NNE
Cosmos 2278 Rocket 3.1 22:47:24 10° NW 22:52:33 37° WSW 22:54:59 25° SSW
Cosmos 2218 Rocket 4.3 22:50:54 30° SSE 22:53:56 55° E 23:00:04 10° NNE
Cosmos 2297 3.8 22:48:28 10° NNW 22:54:14 74° ENE 22:57:11 30° SE
Cosmos 158 Rocket 4.2 22:52:56 23° SW 22:55:57 63° WNW 23:00:50 10° NNE
Cosmos 1420 Rocket 4.2 22:52:50 10° NNW 22:58:07 68° ENE 23:00:36 31° SE
Cosmos 2366 rocket 4.3 22:56:35 31° SSE 22:59:36 58° E 23:05:49 10° NNE
Lacrosse 5 rocket 3.3 22:56:39 10° NW 23:00:11 28° NNE 23:03:34 10° ENE
Cosmos 1943 Rocket 3.1 22:55:22 10° NNW 23:00:48 44° NE 23:04:40 18° ESE
Spot 4 4.3 22:59:07 32° SSW 23:00:57 49° W 23:05:37 10° NNW
Cosmos 1633 4.1 23:01:11 22° E 23:01:30 23° E 23:04:23 10° NE
SL-16 R/B 2.3 23:00:46 35° S 23:03:03 59° ESE 23:08:39 10° NNE
Cosmos 1408 3.8 23:03:24 25° WSW 23:04:41 34° WNW 23:07:59 10° N
Cosmos 2056 Rocket 3.8 23:00:29 10° NNW 23:05:50 61° WSW 23:07:58 35° S
Cosmos 2341 Rocket 4.1 23:11:46 28° SSW 23:15:14 70° W 23:21:28 10° N
Cosmos 332 Rocket 4.0 23:14:42 10° NNW 23:19:30 66° ENE 23:21:28 34° SE
Meteor 2-3 Rocket 3.8 23:21:02 36° S 23:23:21 69° E 23:29:02 10° NNE
USA 267 3.9 23:21:24 30° SSW 23:23:33 37° SW 23:29:34 10° WNW
IRIDIUM 104 4.3 23:23:26 37° SSW 23:25:33 80° W 23:30:48 10° N
Cosmos 2151 3.9 23:23:52 28° SW 23:25:36 41° WNW 23:29:41 10° N
Helios 1A 2.9 23:24:53 47° SSE 23:26:01 80° ENE 23:30:13 10° NNW
Cosmos 405 3.6 23:25:06 10° N 23:28:32 46° ENE 23:29:08 41° ESE
Meteor 1-26 Rocket 4.3 23:26:37 10° NNW 23:32:40 88° W 23:35:20 35° S
Cosmos 1452 Rocket 3.4 23:27:38 10° NNW 23:32:57 88° ENE 23:35:06 37° SSE
CZ-4C R/B 3.6 23:26:56 10° NW 23:33:44 53° NE 23:41:37 10° ESE
SL-8 Rocket 4.1 23:30:59 29° SSW 23:34:12 67° WNW 23:40:21 10° N
Cosmos 1825 3.9 23:32:56 20° WSW 23:34:24 26° WNW 23:37:37 10° NNW
IRIDIUM 114 4.5 23:32:35 35° SSW 23:34:44 67° W 23:39:57 10° N
COSMOS 2455 2.9 23:28:44 10° NNW 23:34:49 79° NE 23:38:24 26° SE
Cosmos 1340 2.6 23:34:23 58° SSW 23:35:02 78° W 23:38:49 10° N
PSLV R/B 4.4 23:31:44 10° NNE 23:35:39 36° E 23:36:34 32° SE
ALOS 2 3.4 23:35:27 33° SW 23:36:33 39° W 23:40:42 10° NNW
Cosmos 1408 Rocket 3.5 23:35:56 46° SSW 23:37:11 81° W 23:41:37 10° N
Cosmos 1933 3.7 23:33:31 10° NNW 23:37:26 52° W 23:38:13 44° SW
Cosmos 1151 Rocket 3.5 23:34:47 10° NNW 23:38:59 49° W 23:40:03 39° SW
APEX 3.2 23:42:18 10° NW 23:44:22 45° NW 23:44:22 45° NW
Cosmos 1727 Rocket 4.0 23:38:50 10° N 23:45:06 84° W 23:48:04 34° S
Cosmos 2369 Rocket 2.4 23:39:51 10° NNW 23:45:26 65° ENE 23:48:49 24° SE
Cosmos 44 3.3 23:43:38 29° WSW 23:45:41 63° NW 23:50:06 10° NNE
Resurs 1-4 Rocket 4.4 23:43:32 10° ENE 23:45:47 13° E 23:48:00 10° ESE
Cosmos 1500 Rocket 3.7 23:44:49 44° SSE 23:46:00 63° E 23:50:20 10° NNE
GP-B 4.0 23:43:10 10° NNW 23:47:18 38° W 23:48:50 29° WSW
SL-4 R/B 3.4 23:48:59 14° NW 23:48:59 14° NW 23:49:27 10° NW
Cosmos 371 Rocket 3.6 23:44:25 10° NNW 23:49:07 51° WSW 23:50:25 39° SSW
SeaSat 1 4.3 23:46:56 10° ENE 23:50:04 17° ESE 23:51:20 15° ESE
Helios 1B rocket 3.0 23:50:30 10° NNE 23:54:29 46° E 23:55:23 39° SE
CREW DRAGON DEMO-1 DEB 3.5 23:54:49 29° W 23:56:04 53° NNW 23:59:05 10° ENE
